Погода в Бабаеве

Россия / Костромская область     57°32′29″N   40°42′24″E
темп.,
°C
ветер,
м/с
пор.,
м/с
влажн.,
%
обл.,
%
осадки,
мм/ч
давл.,
гПа
погр.,
м
21 апреля, ср
ср2100:00+4в51370100 0.4 1018857
03:00+2в81691100 1.8 1014770
06:00+1вюв91997100 4.1 1009926
09:00+3вюв101993100 6.4 1006937
12:00+6юв101990100 0.8 10041310
15:00+3ю61294100 5.3 1007679
18:00+4ююз5889100 0.2 1008739
21:00+3ююз4992100 0.2 1010403
22 апреля, чт
чт2200:00+3ююз4894100 0.1 1011371
03:00+3ююз4894100 0.1 1012293
06:00+3ю4994100 0.0 1013307
09:00+6ю6986100 0.0 1014505
12:00+9ю696888 0.3 10151269
15:00+10ююз786685 1.1 10151265
18:00+9ююз597368 0.2 1016743
21:00+8ю41179100 0.2 1017321
23 апреля, пт
пт2300:00+7ююв5990100 0.0 1017236
03:00+6ююв41089100 0.0 1016244
06:00+7ююв6138827 0.0 1016449
09:00+11ю711735 0.0 1016642
12:00+15ю7115858 0.1 10161331
15:00+16ююз61254100 0.9 10152009
18:00+14ююв611575 0.2 1015750
21:00+10юв412745 0.2 1015259
24 апреля, сб
сб2400:00+8юв4127879 0.0 1014273
03:00+10юв51270100 0.0 1013282
06:00+9юв6147584 0.0 1011437
09:00+13юв8136656 0.0 10101136
12:00+14юв10126245 0.6 10081483
15:00+13юв9126540 2.2 10061382
18:00+12вюв81369100 0.4 10041167
21:00+10вюв71481100 1.8 10021410
25 апреля, вс
вс2500:00+6юз5795100 6.3 1000678
03:00+3юз51098100 11.4 1001643
06:00+2юз71397100 1.2 1002752
09:00+4юз81283100 1.7 10031137
12:00+7зюз81063100 0.8 10041758
15:00+6юз8106766 2.1 10061421
18:00+5юз697199 0.5 10071205
21:00+2ююз410835 0.6 1008284